Location: Newark
(25.6108°S, 54.5803°W)
Time: 23:34:25
(UTC+00:00)

Tiros 1 - Pass Details

Date: 02 November 2020
Orbit: 630 x 664 km, 48.4° (Epoch: 29 November)

Event Time Altitude Azimuth Distance (km) Brightness Sun altitude
Rises 23:27:54 0° 220° (SW) 3,016 11.8 -20.0°
Reaches altitude 10° 23:30:21 10° 214° (SW) 2,097 10.7 -20.5°
Maximum altitude 23:35:03 48° 139° (SE) 866 7.6 -21.4°
Enters shadow 23:35:48 44° 109° (ESE) 918 7.6 -21.5°
Drops below altitude 10° 23:39:40 10° 64° (ENE) 2,068 - -22.3°
Sets 23:42:04 0° 58° (ENE) 2,969 - -22.8°
